Regional Weather Roundup
Issued by NWS

Home | Current Version | Previous Version | Text Only | Print | Product List | Glossary On
Versions: 1 2 3 4 5 6 7 8 9 10 11 12 13 14 15 16 17 18 19 20 21 22 23 24 25 26 27 28 29 30 31 32 33 34 35 36 37 38 39 40 41 42 43 44 45 46 47 48 49 50
000
ASUS43 KMPX 281610
RWRMN
WEATHER ROUNDUP FOR MINNESOTA
NATIONAL WEATHER SERVICE TWIN CITIES/CHANHASSEN MN
1100 AM CDT WED SEP 28 2016


NOTE: "FAIR" INDICATES FEW OR NO CLOUDS BELOW 12,000 FEET WITH NO
SIGNIFICANT WEATHER AND/OR OBSTRUCTIONS TO VISIBILITY. N/A MEANS
CURRENT SKY AND/OR WEATHER CONDITIONS ARE NOT AVAILABLE.

MNZ060>063-068>070-281700-
   Twin Cities Metro

CITY           SKY/WX    TMP DP  RH WIND       PRES   REMARKS
TWIN CITIES    PTSUNNY   58  48  69 N13       30.14R
ST PAUL        PTSUNNY   57  49  74 N12G23    30.14R
CRYSTAL        CLOUDY    57  46  66 N12G20    30.15R
BLAINE         CLOUDY    57  52  82 N14G22    30.15R
LAKEVILLE      CLOUDY    55  48  76 N9        30.13R
EDEN PRAIRIE   PTSUNNY   58  48  69 N12       30.14R
LAKEVILLE      CLOUDY    55  48  76 N9        30.13R
SOUTH ST PAUL  CLOUDY    58  48  71 N13G20    30.13R
LAKE ELMO      CLOUDY    55  50  82 N8        30.14R
$$
MNZ001>005-007-008-013>017-022>024-027-028-281700-
   Northwest Minnesota

CITY           SKY/WX    TMP DP  RH WIND       PRES   REMARKS
BEMIDJI        CLOUDY    53  48  85 N5        30.26R
HALLOCK        SUNNY     55  46  71 CALM      30.30R
ROSEAU         PTSUNNY   55  48  76 N5        30.29R
WARROAD        CLOUDY    54  50  87 NE3       30.29S
THIEF RVR FALL MOSUNNY   56  47  71 E5        30.30R
CROOKSTON      CLOUDY    54  48  82 N3        30.30S
FOSSTON        CLOUDY    52  48  87 CALM      30.29R
DETROIT LAKES  PTSUNNY   54  46  76 NW9       30.27S
MOORHEAD       CLOUDY    52  46  82 NE3       30.29R
PARK RAPIDS    PTSUNNY   54  44  69 NE10      30.25R
MAHNOMEN       CLOUDY    49  46  87 NE6       30.28R
$$
MNZ006-009>011-018-025>026-281700-
   North Central Minnesota

CITY           SKY/WX    TMP DP  RH WIND       PRES   REMARKS
BAUDETTE       CLOUDY    50  48  93 NW3       30.29R
FLAG ISLAND    PTSUNNY   52  48  87 NW6       30.28R
INTL FALLS     CLOUDY    54  46  74 NE8       30.27R
WASKISH        CLOUDY    52  52 100 NE5       30.28R
BIG FORK       CLOUDY    55  48  76 N7        30.26R
GRAND RAPIDS   CLOUDY    54  47  77 N8        30.25R
COOK           CLOUDY    54  48  82 N6        30.25R
WALKER         PTSUNNY   53  47  79 NE8       30.25R
$$
MNZ012-019>021-037-281700-
   Northeast Minnesota

CITY           SKY/WX    TMP DP  RH WIND       PRES   REMARKS
DULUTH         CLOUDY    56  49  77 N9        30.19R
ELY            CLOUDY    54  46  76 NE7       30.22R
HIBBING        CLOUDY    52  46  80 N8        30.23R
EVELETH        CLOUDY    54  46  75 N9        30.23R
DULUTH HARBOR  CLOUDY    57  52  82 N13       30.19R
TWO HARBORS    CLOUDY    61  52  72 NE7       30.17R
SILVER BAY     CLOUDY    57  48  72 NE8       30.17R
GRAND MARAIS     N/A     59  48  67 NE6G17    30.18R
G MARAIS ARPRT CLOUDY    52  45  76 N10       30.20R
$$
MNZ029>031-032-039>041-046>048-054>057-064-281700-
   West Central Minnesota

CITY           SKY/WX    TMP DP  RH WIND       PRES   REMARKS
FERGUS FALLS   CLOUDY    52  48  87 N5        30.29R
MORRIS         CLOUDY    54  46  76 N8        30.24R
ALEXANDRIA     MOSUNNY   56  47  71 N9        30.24R
ELBOW LAKE     CLOUDY    52  47  82 N8        30.26R
WADENA         CLOUDY    54  46  76 NE8       30.25R
GLENWOOD       MOSUNNY   57  48  72 N9        30.23R
BENSON         MOSUNNY   57  46  67 NE8       30.23R
ORTONVILLE     CLOUDY    48  43  81 CALM      30.26R
MADISON        CLOUDY    52  48  87 NE6       30.25R
WILLMAR        FAIR      57  48  72 NE10G16   30.23R
$$
MNZ033>034-036-042>043-049>051-058-059-281700-
   Central Minnesota

CITY           SKY/WX    TMP DP  RH WIND       PRES   REMARKS
ST CLOUD       CLOUDY    55  50  83 N12       30.19R
SAUK CENTRE    PTSUNNY   56  47  73 N8        30.22R
PAYNESVILLE    PTSUNNY   59  47  64 N9G20     30.21S
AITKIN         CLOUDY    57  46  67 N8        30.21R
PINE RIVER     PTSUNNY   54  48  82 N8        30.26R
BRAINERD       CLOUDY    53  48  83 NE13      30.23R
STAPLES        CLOUDY    54  46  76 N6        30.23S
LONG PRAIRIE   PTSUNNY   54  46  76 NW9       30.22R
LITTLE FALLS   CLOUDY    54  46  76 N5        30.22R
LITCHFIELD     SUNNY     57  52  82 N10       30.20R
BUFFALO        CLOUDY    55  48  79 NW9       30.19R
MAPLE LAKE     CLOUDY    56  52  84 N8        30.20R
HUTCHINSON     CLOUDY    57  50  78 N9        30.19S
$$
MNZ037-044-045-052-053-281700-
   East Central Minnesota

CITY           SKY/WX    TMP DP  RH WIND       PRES   REMARKS
PRINCETON      PTSUNNY   61  52  72 N12       30.18R
MORA           PTSUNNY   55  46  71 NE8       30.19R
CAMBRIDGE      CLOUDY    59  46  63 N8        30.15R
MOOSE LAKE     CLOUDY    55  46  71 N10G16    30.17R
HINCKLEY       CLOUDY    55  50  82 N6        30.18R
CLOQUET        CLOUDY    55  46  71 NE9G16    30.19R
MCGREGOR       CLOUDY    54  48  82 N9        30.21R
$$
MNZ071>073-080-081-089-090-097-098-281700-
   Southwest Minnesota

CITY           SKY/WX    TMP DP  RH WIND       PRES   REMARKS
MONTEVIDEO     CLOUDY    55  48  76 N5        30.25S
GRANITE FALLS  MOSUNNY   55  48  78 NW10      30.24R
CANBY          CLOUDY    49  45  88 N6        30.27R
MARSHALL       CLOUDY    50  45  83 N10       30.24R
REDWOOD FALLS  CLOUDY    54  47  77 NW9       30.20R
OLIVIA         CLOUDY    55  48  76 N8        30.19S
PIPESTONE      CLOUDY    46  43  87 N10       30.22S
WINDOM         CLOUDY    52  46  82 N13G20    30.20R
WORTHINGTON    CLOUDY    49  44  83 N13       30.21R
JACKSON        CLOUDY    52  45  76 VRB10G18  30.19R
TRACY          CLOUDY    52  47  85 N12       30.23R
SLAYTON        CLOUDY    46  43  87 N12       30.23R
$$
MNZ065>067-074>077-082>085-091>093-281700-
   South Central Minnesota

CITY           SKY/WX    TMP DP  RH WIND       PRES   REMARKS
MANKATO        CLOUDY    55  48  77 N16       30.16R
NEW ULM        CLOUDY    55  46  71 N8        30.18R
ST JAMES       PTSUNNY   55  48  76 NW12      30.19R
FAIRMONT       CLOUDY    54  47  77 N13       30.17R
GLENCOE        CLOUDY    56  51  83 N7        30.17R
FARIBAULT      CLOUDY    57  48  72 NW9       30.14R
OWATONNA       CLOUDY    55  48  76 N15       30.13R
WASECA         CLOUDY    55  46  71 NW14      30.16R
ALBERT LEA     CLOUDY    55  48  76 N9        30.12R
$$
MNZ078>079-086>088-094>096-281700-
   Southeast Minnesota

CITY           SKY/WX    TMP DP  RH WIND       PRES   REMARKS
ROCHESTER      CLOUDY    55  51  86 N13       30.09R
RED WING       PTSUNNY   61  50  67 N9G20     30.09R
STANTON        CLOUDY    59  49  69 N12G17    30.12R
DODGE CENTER   CLOUDY    57  48  72 N17       30.10R
WINONA         CLOUDY    55  52  88 N9        30.06R
AUSTIN         CLOUDY    55  48  76 N10G22    30.09S
PRESTON        CLOUDY    53  49  86 N13       30.07R
$$
ABBREVIATIONS USED IN REMARKS
   TC - TEMPERATURES IN CELSIUS
  WCI - WIND CHILL INDEX
   HX - HEAT INDEX
  VSB - VISIBILITY
$$




USA.gov is the U.S. government's official web portal to all federal, state and local government web resources and services.